(°C)
(°C)
-4°
-3°
-2°
-2°
-3°
-2°
-2°
SO
SO
SO
SO
OSO
SO
SO
(km/h)
20-32
22-36
26-42
30-47
32-50
33-52
34-53
(mm)
0
0
0
0
0
0
0
(%)
0
0
0
0
0
0
0

Elevação do sol

/ 9.9°
sun-icon
UV 1
07:46
18:10
Minguante gibosa (201°)
18:55
09:24

METAR para 51.02°N 71.47°L (UACC)

Hora Condições Temperatura/
Ponto de condensação
Vento Visibilidade Tempo Nuvens Pressão Mudança Bruto
MVFR 1°C / -2°C 230º 14kt >10km - Scattered Clouds 1000ft
Broken Clouds 3000ft
1018 No Significant change. Runway 22: Frost, 11-25% contamination, friction coefficient 0.55. UACC 220230Z 23007MPS 9999 SCT010 BKN030CB 01/M02 Q1018 R22/32//55 NOSIG RMK QFE732/0976
VFR 1°C / -2°C 230º 14kt >10km - Scattered Clouds 1000ft
Broken Clouds 3100ft
1018 No Significant change. Runway 22: Frost, 11-25% contamination, friction coefficient 0.55. UACC 220200Z 23007MPS 9999 SCT010 BKN031CB 01/M02 Q1018 R22/32//55 NOSIG RMK QFE732/0976
MVFR 1°C / -2°C 240º 12kt >10km Light Showers Snow Light Showers Rain 3.00mm precipitation Vertical Visibility of 0ft.
Broken Clouds 3000ft
1017 Temporary: Visibility 2000. Showers Snow Rain . RMK QFE732/0976 . Runway 22: Frost, 11-25% contamination, friction coefficient 0.55. UACC 220130Z 24006MPS 9999 -SHSNRA SCT010 BKN030CB 01/M02 Q1017 R22/32//55 TEMPO 2000 SHSNRA RMK QFE732/0976
MVFR 0°C / -2°C 240º 14kt >10km Light Showers Snow Light Showers Rain 3.00mm precipitation Vertical Visibility of 0ft.
Broken Clouds 2600ft
1017 Temporary: Visibility 2000. Showers Snow Rain . RMK QFE731/0975 . Runway 22: Frost, 11-25% contamination, friction coefficient 0.55. UACC 220100Z 24007MPS 9999 -SHSNRA SCT010 BKN026CB 00/M02 Q1017 R22/32//55 TEMPO 2000 SHSNRA RMK QFE731/0975
MVFR 0°C / -2°C 240º 12kt >10km Light Showers Snow Light Showers Rain 3.00mm precipitation Vertical Visibility of 0ft.
Broken Clouds 2900ft
1017 Temporary: Visibility 2000. Showers Snow Rain . RMK QFE731/0975 . Runway 22: Frost, 11-25% contamination, friction coefficient 0.55. UACC 220030Z 24006MPS 9999 -SHSNRA SCT008 BKN029CB 00/M02 Q1017 R22/32//55 TEMPO 2000 SHSNRA RMK QFE731/0975
MVFR 0°C / -1°C 240º 12kt >10km Light Showers Snow Light Showers Rain 3.00mm precipitation Vertical Visibility of 0ft.
Broken Clouds 3000ft
1016 Temporary: Visibility 2000. Showers Snow Rain . RMK QFE731/0975 . Runway 22: Frost, 11-25% contamination, friction coefficient 0.55. UACC 220000Z 24006MPS 9999 -SHSNRA SCT008 BKN030CB 00/M01 Q1016 R22/32//55 TEMPO 2000 SHSNRA RMK QFE731/0975
MVFR 0°C / -2°C 240º 14kt 8000m Light Showers Snow Light Showers Rain 3.00mm precipitation Vertical Visibility of 0ft.
Broken Clouds 3300ft
1016 Temporary: Visibility 2000. Showers Snow Rain . RMK QFE731/0974 . Runway 22: Frost, 11-25% contamination, friction coefficient 0.55. UACC 212330Z 24007MPS 8000 -SHSNRA SCT010 BKN033CB 00/M02 Q1016 R22/32//55 TEMPO 2000 SHSNRA RMK QFE731/0974
MVFR 1°C / -2°C 240º 14kt 7000m Light Showers Snow Light Showers Rain 3.00mm precipitation Vertical Visibility of 0ft.
Broken Clouds 3300ft
1016 No Significant change. Runway 22: Clear and dry, , friction coefficient 0.70. UACC 212300Z 24007MPS 7000 -SHSNRA SCT012 BKN033CB 01/M02 Q1016 R22/0///70 NOSIG RMK QFE731/0974
VFR 0°C / -2°C 240º 14kt >10km - Few Clouds 1500ft
Broken Clouds 3600ft
1016 No Significant change. Runway 22: Clear and dry, , friction coefficient 0.70. UACC 212230Z 24007MPS 9999 FEW015 BKN036CB 00/M02 Q1016 R22/0///70 NOSIG RMK QFE730/0974
VFR 0°C / -2°C 240º 14kt >10km - Few Clouds 1600ft
Broken Clouds 3600ft
1015 No Significant change. Runway 22: Clear and dry, , friction coefficient 0.70. UACC 212200Z 24007MPS 9999 FEW016 BKN036CB 00/M02 Q1015 R22/0///70 NOSIG RMK QFE730/0974
MVFR 0°C / -2°C 240º 14kt 9000m Light Showers Snow 3.00mm precipitation Vertical Visibility of 0ft.
Overcast 2600ft
1015 No Significant change. Runway 22: Clear and dry, , friction coefficient 0.70. UACC 212130Z 24007MPS 9000 -SHSN SCT013 OVC026CB 00/M02 Q1015 R22/0///70 NOSIG RMK QFE730/0974
VFR 0°C / -3°C 240º 12kt >10km - Scattered Clouds 1600ft
Overcast 3300ft
1015 No Significant change. Runway 22: Clear and dry, , friction coefficient 0.70. UACC 212100Z 24006MPS 9999 SCT016 OVC033 00/M03 Q1015 R22/0///70 NOSIG RMK QFE730/0974
VFR 1°C / -3°C 250º 16kt >10km - Broken Clouds 4000ft 1015 No Significant change. Runway 22: Clear and dry, , friction coefficient 0.70. UACC 212030Z 25008MPS 9999 BKN040 01/M03 Q1015 R22/0///70 NOSIG RMK QFE730/0973
VFR 1°C / -3°C 250º 14kt >10km - Broken Clouds 3600ft 1014 No Significant change. Runway 22: Clear and dry, , friction coefficient 0.70. UACC 212000Z 25007MPS 9999 BKN036 01/M03 Q1014 R22/0///70 NOSIG RMK QFE730/0973
VFR 1°C / -3°C 240º 14kt >10km - Broken Clouds 3600ft 1014 No Significant change. Runway 22: Clear and dry, , friction coefficient 0.70. UACC 211930Z 24007MPS 9999 BKN036 01/M03 Q1014 R22/0///70 NOSIG RMK QFE729/0972
VFR 1°C / -4°C 250º 12kt >10km - Broken Clouds 3600ft 1014 No Significant change. Runway 22: Clear and dry, , friction coefficient 0.70. UACC 211900Z 25006MPS 9999 BKN036 01/M04 Q1014 R22/0///70 NOSIG RMK QFE729/0972
VFR 1°C / -3°C 250º 12kt >10km - Broken Clouds 3600ft 1013 No Significant change. Runway 22: Clear and dry, , friction coefficient 0.70. UACC 211830Z 25006MPS 9999 BKN036 01/M03 Q1013 R22/0///70 NOSIG RMK QFE729/0972
VFR 1°C / -3°C 250º 12kt >10km - Broken Clouds 3600ft 1013 No Significant change. Runway 22: Clear and dry, , friction coefficient 0.70. UACC 211800Z 25006MPS 9999 BKN036 01/M03 Q1013 R22/0///70 NOSIG RMK QFE729/0972
VFR 1°C / -3°C 240º 12kt >10km - Broken Clouds 3600ft 1013 No Significant change. Runway 22: Clear and dry, , friction coefficient 0.70. UACC 211730Z 24006MPS 9999 BKN036 01/M03 Q1013 R22/0///70 NOSIG RMK QFE729/0972
VFR 1°C / -2°C 240º 12kt >10km - Broken Clouds 4000ft 1013 No Significant change. Runway 22: Clear and dry, , friction coefficient 0.70. UACC 211700Z 24006MPS 9999 BKN040 01/M02 Q1013 R22/0///70 NOSIG RMK QFE728/0971
VFR 2°C / -2°C 250º 10kt >10km - Overcast 4000ft 1012 No Significant change. Runway 22: Clear and dry, , friction coefficient 0.70. UACC 211630Z 25005MPS 9999 OVC040 02/M02 Q1012 R22/0///70 NOSIG RMK QFE728/0971
VFR 2°C / -2°C 250º 12kt >10km - Overcast 3600ft 1012 No Significant change. Runway 22: Clear and dry, , friction coefficient 0.70. UACC 211600Z 25006MPS 9999 OVC036 02/M02 Q1012 R22/0///70 NOSIG RMK QFE728/0971
VFR 2°C / -2°C 250º 12kt >10km - Overcast 3300ft 1012 No Significant change. Runway 22: Clear and dry, , friction coefficient 0.70. UACC 211530Z 25006MPS 9999 OVC033 02/M02 Q1012 R22/0///70 NOSIG RMK QFE728/0970
VFR 3°C / 0°C 250º 12kt >10km - Few Clouds 3000ft
Overcast 3600ft
1012 No Significant change. Runway 22: Clear and dry, , friction coefficient 0.70. UACC 211500Z 25006MPS 9999 FEW030CB OVC036 03/M00 Q1012 R22/0///70 NOSIG RMK QFE728/0970

MVFR

1°C / -2°C

[Mais]
Vento 230º 14kt
Visibilidade >10km
Tempo -
Nuvens Scattered Clouds 1000ft
Broken Clouds 3000ft
Pressão 1018
Mudança No Significant change. Runway 22: Frost, 11-25% contamination, friction coefficient 0.55.
Bruto UACC 220230Z 23007MPS 9999 SCT010 BKN030CB 01/M02 Q1018 R22/32//55 NOSIG RMK QFE732/0976

VFR

1°C / -2°C

[Mais]
Vento 230º 14kt
Visibilidade >10km
Tempo -
Nuvens Scattered Clouds 1000ft
Broken Clouds 3100ft
Pressão 1018
Mudança No Significant change. Runway 22: Frost, 11-25% contamination, friction coefficient 0.55.
Bruto UACC 220200Z 23007MPS 9999 SCT010 BKN031CB 01/M02 Q1018 R22/32//55 NOSIG RMK QFE732/0976

MVFR

1°C / -2°C

[Mais]
Vento 240º 12kt
Visibilidade >10km
Tempo Light Showers Snow Light Showers Rain 3.00mm precipitation
Nuvens Vertical Visibility of 0ft.
Broken Clouds 3000ft
Pressão 1017
Mudança Temporary: Visibility 2000. Showers Snow Rain . RMK QFE732/0976 . Runway 22: Frost, 11-25% contamination, friction coefficient 0.55.
Bruto UACC 220130Z 24006MPS 9999 -SHSNRA SCT010 BKN030CB 01/M02 Q1017 R22/32//55 TEMPO 2000 SHSNRA RMK QFE732/0976

MVFR

0°C / -2°C

[Mais]
Vento 240º 14kt
Visibilidade >10km
Tempo Light Showers Snow Light Showers Rain 3.00mm precipitation
Nuvens Vertical Visibility of 0ft.
Broken Clouds 2600ft
Pressão 1017
Mudança Temporary: Visibility 2000. Showers Snow Rain . RMK QFE731/0975 . Runway 22: Frost, 11-25% contamination, friction coefficient 0.55.
Bruto UACC 220100Z 24007MPS 9999 -SHSNRA SCT010 BKN026CB 00/M02 Q1017 R22/32//55 TEMPO 2000 SHSNRA RMK QFE731/0975

MVFR

0°C / -2°C

[Mais]
Vento 240º 12kt
Visibilidade >10km
Tempo Light Showers Snow Light Showers Rain 3.00mm precipitation
Nuvens Vertical Visibility of 0ft.
Broken Clouds 2900ft
Pressão 1017
Mudança Temporary: Visibility 2000. Showers Snow Rain . RMK QFE731/0975 . Runway 22: Frost, 11-25% contamination, friction coefficient 0.55.
Bruto UACC 220030Z 24006MPS 9999 -SHSNRA SCT008 BKN029CB 00/M02 Q1017 R22/32//55 TEMPO 2000 SHSNRA RMK QFE731/0975

MVFR

0°C / -1°C

[Mais]
Vento 240º 12kt
Visibilidade >10km
Tempo Light Showers Snow Light Showers Rain 3.00mm precipitation
Nuvens Vertical Visibility of 0ft.
Broken Clouds 3000ft
Pressão 1016
Mudança Temporary: Visibility 2000. Showers Snow Rain . RMK QFE731/0975 . Runway 22: Frost, 11-25% contamination, friction coefficient 0.55.
Bruto UACC 220000Z 24006MPS 9999 -SHSNRA SCT008 BKN030CB 00/M01 Q1016 R22/32//55 TEMPO 2000 SHSNRA RMK QFE731/0975

MVFR

0°C / -2°C

[Mais]
Vento 240º 14kt
Visibilidade 8000m
Tempo Light Showers Snow Light Showers Rain 3.00mm precipitation
Nuvens Vertical Visibility of 0ft.
Broken Clouds 3300ft
Pressão 1016
Mudança Temporary: Visibility 2000. Showers Snow Rain . RMK QFE731/0974 . Runway 22: Frost, 11-25% contamination, friction coefficient 0.55.
Bruto UACC 212330Z 24007MPS 8000 -SHSNRA SCT010 BKN033CB 00/M02 Q1016 R22/32//55 TEMPO 2000 SHSNRA RMK QFE731/0974

MVFR

1°C / -2°C

[Mais]
Vento 240º 14kt
Visibilidade 7000m
Tempo Light Showers Snow Light Showers Rain 3.00mm precipitation
Nuvens Vertical Visibility of 0ft.
Broken Clouds 3300ft
Pressão 1016
Mudança No Significant change. Runway 22: Clear and dry, , friction coefficient 0.70.
Bruto UACC 212300Z 24007MPS 7000 -SHSNRA SCT012 BKN033CB 01/M02 Q1016 R22/0///70 NOSIG RMK QFE731/0974

VFR

0°C / -2°C

[Mais]
Vento 240º 14kt
Visibilidade >10km
Tempo -
Nuvens Few Clouds 1500ft
Broken Clouds 3600ft
Pressão 1016
Mudança No Significant change. Runway 22: Clear and dry, , friction coefficient 0.70.
Bruto UACC 212230Z 24007MPS 9999 FEW015 BKN036CB 00/M02 Q1016 R22/0///70 NOSIG RMK QFE730/0974

VFR

0°C / -2°C

[Mais]
Vento 240º 14kt
Visibilidade >10km
Tempo -
Nuvens Few Clouds 1600ft
Broken Clouds 3600ft
Pressão 1015
Mudança No Significant change. Runway 22: Clear and dry, , friction coefficient 0.70.
Bruto UACC 212200Z 24007MPS 9999 FEW016 BKN036CB 00/M02 Q1015 R22/0///70 NOSIG RMK QFE730/0974

MVFR

0°C / -2°C

[Mais]
Vento 240º 14kt
Visibilidade 9000m
Tempo Light Showers Snow 3.00mm precipitation
Nuvens Vertical Visibility of 0ft.
Overcast 2600ft
Pressão 1015
Mudança No Significant change. Runway 22: Clear and dry, , friction coefficient 0.70.
Bruto UACC 212130Z 24007MPS 9000 -SHSN SCT013 OVC026CB 00/M02 Q1015 R22/0///70 NOSIG RMK QFE730/0974

VFR

0°C / -3°C

[Mais]
Vento 240º 12kt
Visibilidade >10km
Tempo -
Nuvens Scattered Clouds 1600ft
Overcast 3300ft
Pressão 1015
Mudança No Significant change. Runway 22: Clear and dry, , friction coefficient 0.70.
Bruto UACC 212100Z 24006MPS 9999 SCT016 OVC033 00/M03 Q1015 R22/0///70 NOSIG RMK QFE730/0974

VFR

1°C / -3°C

[Mais]
Vento 250º 16kt
Visibilidade >10km
Tempo -
Nuvens Broken Clouds 4000ft
Pressão 1015
Mudança No Significant change. Runway 22: Clear and dry, , friction coefficient 0.70.
Bruto UACC 212030Z 25008MPS 9999 BKN040 01/M03 Q1015 R22/0///70 NOSIG RMK QFE730/0973

VFR

1°C / -3°C

[Mais]
Vento 250º 14kt
Visibilidade >10km
Tempo -
Nuvens Broken Clouds 3600ft
Pressão 1014
Mudança No Significant change. Runway 22: Clear and dry, , friction coefficient 0.70.
Bruto UACC 212000Z 25007MPS 9999 BKN036 01/M03 Q1014 R22/0///70 NOSIG RMK QFE730/0973

VFR

1°C / -3°C

[Mais]
Vento 240º 14kt
Visibilidade >10km
Tempo -
Nuvens Broken Clouds 3600ft
Pressão 1014
Mudança No Significant change. Runway 22: Clear and dry, , friction coefficient 0.70.
Bruto UACC 211930Z 24007MPS 9999 BKN036 01/M03 Q1014 R22/0///70 NOSIG RMK QFE729/0972

VFR

1°C / -4°C

[Mais]
Vento 250º 12kt
Visibilidade >10km
Tempo -
Nuvens Broken Clouds 3600ft
Pressão 1014
Mudança No Significant change. Runway 22: Clear and dry, , friction coefficient 0.70.
Bruto UACC 211900Z 25006MPS 9999 BKN036 01/M04 Q1014 R22/0///70 NOSIG RMK QFE729/0972

VFR

1°C / -3°C

[Mais]
Vento 250º 12kt
Visibilidade >10km
Tempo -
Nuvens Broken Clouds 3600ft
Pressão 1013
Mudança No Significant change. Runway 22: Clear and dry, , friction coefficient 0.70.
Bruto UACC 211830Z 25006MPS 9999 BKN036 01/M03 Q1013 R22/0///70 NOSIG RMK QFE729/0972

VFR

1°C / -3°C

[Mais]
Vento 250º 12kt
Visibilidade >10km
Tempo -
Nuvens Broken Clouds 3600ft
Pressão 1013
Mudança No Significant change. Runway 22: Clear and dry, , friction coefficient 0.70.
Bruto UACC 211800Z 25006MPS 9999 BKN036 01/M03 Q1013 R22/0///70 NOSIG RMK QFE729/0972

VFR

1°C / -3°C

[Mais]
Vento 240º 12kt
Visibilidade >10km
Tempo -
Nuvens Broken Clouds 3600ft
Pressão 1013
Mudança No Significant change. Runway 22: Clear and dry, , friction coefficient 0.70.
Bruto UACC 211730Z 24006MPS 9999 BKN036 01/M03 Q1013 R22/0///70 NOSIG RMK QFE729/0972

VFR

1°C / -2°C

[Mais]
Vento 240º 12kt
Visibilidade >10km
Tempo -
Nuvens Broken Clouds 4000ft
Pressão 1013
Mudança No Significant change. Runway 22: Clear and dry, , friction coefficient 0.70.
Bruto UACC 211700Z 24006MPS 9999 BKN040 01/M02 Q1013 R22/0///70 NOSIG RMK QFE728/0971

VFR

2°C / -2°C

[Mais]
Vento 250º 10kt
Visibilidade >10km
Tempo -
Nuvens Overcast 4000ft
Pressão 1012
Mudança No Significant change. Runway 22: Clear and dry, , friction coefficient 0.70.
Bruto UACC 211630Z 25005MPS 9999 OVC040 02/M02 Q1012 R22/0///70 NOSIG RMK QFE728/0971

VFR

2°C / -2°C

[Mais]
Vento 250º 12kt
Visibilidade >10km
Tempo -
Nuvens Overcast 3600ft
Pressão 1012
Mudança No Significant change. Runway 22: Clear and dry, , friction coefficient 0.70.
Bruto UACC 211600Z 25006MPS 9999 OVC036 02/M02 Q1012 R22/0///70 NOSIG RMK QFE728/0971

VFR

2°C / -2°C

[Mais]
Vento 250º 12kt
Visibilidade >10km
Tempo -
Nuvens Overcast 3300ft
Pressão 1012
Mudança No Significant change. Runway 22: Clear and dry, , friction coefficient 0.70.
Bruto UACC 211530Z 25006MPS 9999 OVC033 02/M02 Q1012 R22/0///70 NOSIG RMK QFE728/0970

VFR

3°C / 0°C

[Mais]
Vento 250º 12kt
Visibilidade >10km
Tempo -
Nuvens Few Clouds 3000ft
Overcast 3600ft
Pressão 1012
Mudança No Significant change. Runway 22: Clear and dry, , friction coefficient 0.70.
Bruto UACC 211500Z 25006MPS 9999 FEW030CB OVC036 03/M00 Q1012 R22/0///70 NOSIG RMK QFE728/0970

TAF para 51.02°N 71.47°L (UACC)

From till


Maximum Temperature 6ºC on . Minimum Temperature 0ºC on .
From till Wind 230º 16kt. Visibility 10km or more. Broken Clouds 1100ft. Broken Clouds 3000ft.
Temporarly from till Wind 240º 16kt. Gust 25kt. Visibility 3100m. Light Showers Snow Light Showers Rain . Broken Clouds 500ft. Overcast 1100ft.
Temporarly from till Wind 220º 25kt. Gust 35kt. Scattered Clouds 2000ft.
Becoming from till Wind 230º 25kt. Visibility 10km or more. Broken Clouds 1100ft. Broken Clouds 3000ft.
Temporarly from till Wind 220º 23kt. Gust 33kt. Visibility 3100m. Light Showers Rain Light Showers Snow . Scattered Clouds 700ft. Overcast 1100ft.

Bruto: TAF UACC 212306Z 2200/2224 23008MPS 9999 BKN011 BKN030 TX06/2209Z TN00/2201Z TEMPO 2200/2206 24008G13MPS 3100 -SHSNRA BKN005 OVC011CB BECMG 2206/2207 23013MPS TEMPO 2206/2211 22013G18MPS SCT020CB TEMPO 2211/2224 22012G17MPS 3100 -SHRASN SCT007 OVC011CB

Imagens atuais de satélite e precipitação para 51.02°N 71.47°L

O marcador de lugar é colocado em 51.02°N 71.47°L. [Mais]

A imagem de satélite em tempo real combina luz visível durante o dia com radiação infravermelha durante a noite. À noite, a imagem não é escura, pois a radiação infravermelha pode detectar diferenças de temperatura. Infelizmente, nuvens baixas e neblina são difíceis de distinguir das temperaturas do solo e, portanto, podem ser quase invisíveis durante a noite. As imagens de satélite Meteosat para a Europa são atualizadas em tempo real a cada 5 minutos. GOES-16/GOES-17 ( América do Norte e do Sul) e Himawari (Ásia) são atualizadas a cada 10 minutos.

Copyright 2021 EUMETSAT / meteoblue. / Copyright 2021 meteoblue

Radar e precipitação nowcast para 51.02°N 71.47°L

Chuvisco
Leve
Moderado
Forte
Muito forte
Granizo

O marcador do lugar é colocado em 51.02°N 71.47°L. Esta animação mostra o radar de precipitação para a última hora, assim como a 1h previsão. A queda de neve pode ser invisível para o radar. A intensidade da precipitação é codificada por cores, variando do azul claro ao laranja.